Location: Austin
(30.3000°N, 97.7500°W)
Time: 19:37:02
(UTC-06:00)

Cosmos 2251 Rocket - Pass Details

Date: 31 October 2024
Orbit: 762 x 789 km, 74.0° (Epoch: 05 November)

Event Time Altitude Azimuth Distance (km) Brightness Sun altitude
Exits shadow 06:21:43 30° 302° (WNW) 1,381 4.3 -18.4°
Maximum altitude 06:23:36 40° 259° (W) 1,140 3.9 -18.0°
Drops below altitude 10° 06:28:32 10° 191° (S) 2,337 6.0 -17.0°
Sets 06:31:02 0° 184° (S) 3,264 6.8 -16.4°
